Content
SEND FEEDBACK

Daily
Averages
Monthly
Summary
United States of America

ST. LOUIS - SAINT LOUIS UNIVERSITY, MISSOURI


Home > North America > United States > Missouri
Elevation: 580 feet     Latitude: 38 38N     Longitude: 090 14W

WEATHER
 
SELECT A DAY
Number of Records: 188,449;   Date Range: 1/1/95 - 9/30/14
 
SHARE

PRINT THIS DATA

[ ← Previous Day ]
WEATHER ALMANAC - APRIL 29, 2013
[ Next Day → ]
[ °C ]   °F
Weather ElementAverageHighLow
Temperature53.6 °F75.9 °F (2:53 pm)42.8 °F (3:22 am)
Dewpoint49.1 °F60.1 °F (1:53 pm)42.1 °F (2:53 am)
Humidity86.7 %100 % (2:20 am)56 % (2:53 pm)
Barometer29.90 in29.95 in (7:14 am)29.80 in (4:53 pm)
Wind Speed4.9 mph19.6 mph (5:53 pm)
Wind Gust26.5 mph (5:53 pm)
Weather ElementAverage
Visibility4.7 mi
Wind DirectionE (89.6 °)

Weather ElementTotal
Precipitation---
Heating Degree Days5.7 (Base 65)
Growing Degree Days9.4 (Base 50)
Averaged from 47 records on April 29, 2013
WEATHER CONDITIONS BREAKOUT
WIND DIRECTION BREAKOUT
WEATHER BY HOUR - APRIL 29, 2013
[ °C ]   °F
Local TimeTemperatureDewpointHumidityBarometerVisibilityWind DirectionWind SpeedGust SpeedPrecipitationEventsConditions
12:17 AM46.4 °F44.6 °F93 %29.94 in2.0 miSouth (170°)5.8 mphClear
12:24 AM48.2 °F46.4 °F93 %29.94 in6.0 miSouth (170°)4.6 mphClear
12:53 AM48.0 °F46.0 °F93 %29.94 in8.0 miSouth (170°)4.6 mphClear
1:53 AM48.0 °F46.9 °F96 %29.93 in5.0 miCalmClear
2:10 AM46.4 °F44.6 °F93 %29.92 in1.5 miCalmClear
2:20 AM44.6 °F44.6 °F100 %29.92 in0.5 miCalmFogFog
2:30 AM44.6 °F44.6 °F100 %29.92 in1.8 miCalmPartly Cloudy
2:32 AM44.6 °F44.6 °F100 %29.92 in3.0 miCalmPartly Cloudy
2:53 AM45.0 °F42.1 °F90 %29.92 in1.2 miCalmClear
3:02 AM44.6 °F42.8 °F93 %29.92 in0.5 miCalmFogFog
3:10 AM44.6 °F42.8 °F93 %29.91 in0.2 miCalmFogFog
3:22 AM42.8 °F42.8 °F100 %29.91 in0.2 miCalmFogFog
3:53 AM44.1 °F43.0 °F96 %29.92 in0.2 miCalmFogFog
4:00 AM42.8 °F42.8 °F100 %29.91 in0.5 miCalmFogFog
4:24 AM42.8 °F42.8 °F100 %29.92 in2.0 miCalmClear
4:33 AM42.8 °F42.8 °F100 %29.92 in1.0 miCalmClear
4:40 AM42.8 °F42.8 °F100 %29.92 in0.8 miCalmClear
4:47 AM44.6 °F42.8 °F93 %29.92 in0.2 miCalmFogFog
4:53 AM44.1 °F42.1 °F93 %29.92 in0.2 miCalmFogFog
5:16 AM44.6 °F42.8 °F93 %29.92 in0.8 miCalmMist
5:19 AM44.6 °F42.8 °F93 %29.92 in1.2 miCalmPartly Cloudy
5:35 AM44.6 °F42.8 °F93 %29.92 in0.5 miCalmFogFog
5:48 AM44.6 °F44.6 °F100 %29.93 in1.0 miSSE (160°)4.6 mphMist
5:53 AM46.0 °F45.0 °F96 %29.94 in1.2 miSouth (170°)5.8 mphMostly Cloudy
6:00 AM46.4 °F46.4 °F100 %29.93 in0.2 miSSE (160°)5.8 mphFogFog
6:50 AM46.4 °F46.4 °F100 %29.94 in0.5 miSSE (160°)4.6 mphFogFog
6:53 AM46.9 °F46.0 °F97 %29.94 in0.5 miSSE (160°)4.6 mphFogFog
7:04 AM48.2 °F46.4 °F93 %29.94 in1.5 miSSE (160°)6.9 mphOvercast
7:14 AM48.2 °F46.4 °F93 %29.95 in3.0 miSSE (160°)5.8 mphMostly Cloudy
7:28 AM48.2 °F48.2 °F100 %29.95 in5.0 miSSE (150°)4.6 mphScattered Clouds
7:53 AM51.1 °F50.0 °F96 %29.95 in10.0 miSSE (160°)4.6 mphClear
8:53 AM57.0 °F53.1 °F87 %29.94 in10.0 miSE (140°)8.1 mphClear
9:53 AM62.1 °F54.0 °F75 %29.93 in10.0 miSE (140°)6.9 mphClear
10:53 AM66.9 °F55.9 °F68 %29.93 in10.0 miVariable6.9 mphClear
11:53 AM69.1 °F57.0 °F65 %29.92 in10.0 miSE (140°)8.1 mphClear
12:53 PM73.0 °F57.9 °F59 %29.89 in10.0 miSSE (150°)10.4 mphClear
1:53 PM75.0 °F60.1 °F60 %29.87 in10.0 miSE (140°)15.0 mph20.7 mphClear
2:53 PM75.9 °F59.0 °F56 %29.84 in10.0 miSouth (170°)10.4 mph18.4 mphClear
3:53 PM75.9 °F60.1 °F58 %29.82 in10.0 miSE (130°)16.1 mphClear
4:53 PM75.9 °F59.0 °F56 %29.80 in10.0 miSSE (150°)10.4 mph20.7 mphClear
5:53 PM73.9 °F59.0 °F59 %29.80 in10.0 miSE (140°)19.6 mph26.5 mphClear
6:53 PM72.0 °F59.0 °F64 %29.80 in10.0 miSSE (150°)11.5 mphClear
7:53 PM69.1 °F59.0 °F70 %29.81 in10.0 miSSE (160°)10.4 mph18.4 mphClear
8:53 PM66.9 °F59.0 °F76 %29.81 in10.0 miSSE (160°)10.4 mphClear
9:53 PM66.0 °F59.0 °F78 %29.83 in10.0 miSSE (160°)8.1 mphClear
10:53 PM64.9 °F59.0 °F81 %29.82 in10.0 miSSE (160°)9.2 mphClear
11:53 PM64.0 °F59.0 °F84 %29.82 in10.0 miSouth (170°)6.9 mphClear
Hourly data recorded from KCPS, located miles away from St. Louis - Saint Louis University, Missouri







STORIES FROM OUR PARTNERS